Weather History for Key West, FL

Change the Weather History Date:

Saturday, February 2, 2013

  Actual Average Record
Temperature  
Mean Temperature 70 °F 70 °F  
Max Temperature 76 °F 75 °F 86 °F (1957)
Min Temperature 64 °F 65 °F 50 °F (1980)
Degree Days  
Heating Degree Days 0 1  
Month to date heating degree days 0 2  
Since 1 July heating degree days 5 53  
Cooling Degree Days 5 6  
Month to date cooling degree days 7 12  
Year to date cooling degree days 298 177  
Growing Degree Days 20 (Base 50)    
Moisture  
Dew Point 57 °F    
Average Humidity 66    
Maximum Humidity 78    
Minimum Humidity 53    
Precipitation  
Precipitation 0.00 in 0.05 in 2.34 in (1998)
Month to date precipitation 0.00 0.11  
Year to date precipitation 0.29 2.15  
Snow  
Snow 0.00 in - - ()
Month to date snowfall 0.0  
Since 1 July snowfall 0.0  
Snow Depth 0.00 in    
Sea Level Pressure  
Sea Level Pressure 30.17 in    
Wind  
Wind Speed 9 mph (NE)    
Max Wind Speed 17 mph    
Max Gust Speed 24 mph    
Visibility 10 miles    
Events      
T = Trace of Precipitation, MM = Missing Value Source: NWS Daily Summary

Daily Weather History Graph

Daily Weather History Graph

Search for Another Location

Airport:

Trip Planner

Search our weather history database for the weather conditions in past years. The results will help you decide how hot, cold, wet, or windy it might be!

Date:

Astronomy

Feb. 02, 2013 Rise Set
Actual Time 7:08 AM EST 6:13 PM EST
Civil Twilight 6:44 AM EST 6:37 PM EST
Nautical Twilight 6:17 AM EST 7:04 PM EST
Astronomical Twilight 5:50 AM EST 7:31 PM EST
Moon No Moon Rise 11:06 AM EST (2/2)
Length of Visible Light 11h 52m
Length of Day
11h 05m
Waning Gibbous, 60% of the Moon is Illuminated
Feb 2
Waning Gibbous
Feb 3
Last Quarter
Feb 10
New
Feb 17
First Quarter
Feb 25
Full

Hourly Weather History & Observations

Time (EST) Temp. Dew Point Humidity Pressure Visibility Wind Dir Wind Speed Gust Speed Precip Events Conditions
12:53 AM 66.0 °F 57.0 °F 73% 30.21 in 10.0 mi NNE 11.5 mph 20.7 mph N/A   Mostly Cloudy
1:53 AM 64.9 °F 57.9 °F 78% 30.20 in 10.0 mi NE 11.5 mph - N/A   Overcast
2:53 AM 66.0 °F 55.9 °F 70% 30.19 in 10.0 mi NE 12.7 mph 20.7 mph N/A   Mostly Cloudy
3:53 AM 64.4 °F 55.4 °F 73% 30.18 in 10.0 mi ENE 8.1 mph - N/A   Clear
4:53 AM 64.9 °F 57.0 °F 75% 30.19 in 10.0 mi NE 6.9 mph 17.3 mph N/A   Clear
5:53 AM 64.9 °F 57.0 °F 75% 30.20 in 10.0 mi NE 9.2 mph - N/A   Clear
6:53 AM 64.9 °F 57.0 °F 75% 30.21 in 10.0 mi NE 9.2 mph - N/A   Clear
7:53 AM 66.0 °F 55.9 °F 70% 30.22 in 10.0 mi NE 9.2 mph 17.3 mph N/A   Partly Cloudy
8:53 AM 66.9 °F 54.0 °F 63% 30.23 in 10.0 mi NE 11.5 mph 18.4 mph N/A   Clear
9:53 AM 68.0 °F 53.1 °F 59% 30.24 in 10.0 mi NE 15.0 mph 20.7 mph N/A   Clear
10:53 AM 70.0 °F 54.0 °F 57% 30.22 in 10.0 mi NE 11.5 mph 18.4 mph N/A   Clear
11:53 AM 72.0 °F 55.9 °F 57% 30.20 in 10.0 mi NE 11.5 mph 17.3 mph N/A   Clear
12:53 PM 73.0 °F 57.0 °F 57% 30.18 in 10.0 mi NE 9.2 mph - N/A   Clear
1:53 PM 75.0 °F 57.0 °F 53% 30.15 in 10.0 mi ENE 10.4 mph 19.6 mph N/A   Clear
2:53 PM 75.0 °F 57.0 °F 53% 30.13 in 10.0 mi East 13.8 mph 19.6 mph N/A   Clear
3:53 PM 73.0 °F 55.9 °F 55% 30.12 in 10.0 mi East 13.8 mph - N/A   Partly Cloudy
4:53 PM 73.0 °F 57.9 °F 59% 30.12 in 10.0 mi East 11.5 mph - N/A   Clear
5:53 PM 71.1 °F 55.9 °F 59% 30.12 in 10.0 mi East 8.1 mph - N/A   Clear
6:53 PM 70.0 °F 57.9 °F 65% 30.13 in 10.0 mi ENE 4.6 mph - N/A   Clear
7:53 PM 70.0 °F 57.9 °F 65% 30.14 in 10.0 mi ENE 6.9 mph - N/A   Overcast
8:53 PM 69.1 °F 59.0 °F 70% 30.15 in 10.0 mi NE 5.8 mph - N/A   Overcast
9:53 PM 69.1 °F 59.0 °F 70% 30.15 in 10.0 mi NE 5.8 mph - N/A   Mostly Cloudy
10:53 PM 68.0 °F 59.0 °F 73% 30.15 in 10.0 mi NE 4.6 mph - N/A   Mostly Cloudy
11:53 PM 69.1 °F 60.1 °F 73% 30.13 in 10.0 mi NNE 4.6 mph - N/A   Overcast